Fairfield, IL

8:22 AM CST on December 03, 2016 (GMT -0600)
Fairfield Municipal

Weather History for KFWC - April, 2014

Change the Weather History Date:

Tuesday, April 8, 2014

  Actual Average (KMVN) Record (KMVN)
Temperature  
Mean Temperature 53 °F -  
Max Temperature 62 °F 62 °F 82 °F (2001)
Min Temperature 44 °F 42 °F 23 °F (2007)
Degree Days  
Heating Degree Days 12    
Growing Degree Days 3 (Base 50)    
Moisture  
Dew Point 42 °F    
Average Humidity 70    
Maximum Humidity 93    
Minimum Humidity 39    
Precipitation  
Precipitation 0.00 in - - ()
Sea Level Pressure  
Sea Level Pressure 29.81 in    
Wind  
Wind Speed 5 mph (WNW)    
Max Wind Speed 14 mph    
Max Gust Speed 21 mph    
Visibility 10 miles    
Events Rain , Thunderstorm    
Averages and records for this station are not official NWS values.
T = Trace of Precipitation, MM = Missing Value Source: NWS Daily Summary

Daily Weather History Graph

Daily Weather History Graph

Search for Another Location

Airport or City:

Trip Planner

Search our weather history database for the weather conditions in past years. The results will help you decide how hot, cold, wet, or windy it might be!

Date:

Astronomy

Apr. 08, 2014 Rise Set
Actual Time 6:28 AM CDT 7:23 PM CDT
Civil Twilight 6:01 AM CDT 7:50 PM CDT
Nautical Twilight 5:29 AM CDT 8:22 PM CDT
Astronomical Twilight 4:56 AM CDT 8:55 PM CDT
Moon 1:21 PM CDT (4/8) 2:36 AM CDT (4/8)
Length of Visible Light 13h 49m
Length of Day
12h 55m
Waxing Gibbous, 63% of the Moon is Illuminated
Apr 8
Waxing Gibbous
Apr 15
Full
Apr 22
Last Quarter
Apr 29
New
May 6
First Quarter

Hourly Weather History & Observations

Time (CDT) Temp. Windchill Dew Point Humidity Pressure Visibility Wind Dir Wind Speed Gust Speed Precip Events Conditions
12:15 AM 46.4 °F 42.4 °F 44.6 °F 93% 29.77 in 10.0 mi WSW 8.1 mph - N/A   Overcast
12:35 AM 46.4 °F 43.5 °F 44.6 °F 93% 29.78 in 10.0 mi WNW 5.8 mph - N/A   Drizzle
1:15 AM 46.4 °F 44.3 °F 44.6 °F 93% 29.78 in 10.0 mi WSW 4.6 mph - N/A Rain Light Rain
1:35 AM 46.4 °F 43.5 °F 44.6 °F 93% 29.76 in 10.0 mi WSW 5.8 mph - N/A   Light Drizzle
1:55 AM 46.4 °F 45.2 °F 44.6 °F 93% 29.75 in 10.0 mi WSW 3.5 mph - N/A   Overcast
2:15 AM 46.4 °F - 44.6 °F 93% 29.75 in 10.0 mi Calm Calm - N/A   Overcast
2:35 AM 44.6 °F - 42.8 °F 93% 29.75 in 7.0 mi Calm Calm - N/A   Scattered Clouds
2:55 AM 44.6 °F - 42.8 °F 93% 29.75 in 7.0 mi Calm Calm - N/A   Scattered Clouds
3:15 AM 44.6 °F - 42.8 °F 93% 29.74 in 7.0 mi Calm Calm - N/A   Mostly Cloudy
3:35 AM 44.6 °F - 42.8 °F 93% 29.74 in 7.0 mi Calm Calm - N/A   Overcast
3:55 AM 44.6 °F 43.1 °F 42.8 °F 93% 29.74 in 7.0 mi SSW 3.5 mph - N/A   Overcast
4:15 AM 44.6 °F 43.1 °F 42.8 °F 93% 29.74 in 7.0 mi SW 3.5 mph - N/A   Overcast
4:35 AM 46.4 °F 43.5 °F 44.6 °F 93% 29.73 in 10.0 mi WSW 5.8 mph - N/A   Overcast
4:55 AM 46.4 °F 43.5 °F 44.6 °F 93% 29.74 in 10.0 mi SW 5.8 mph - N/A   Overcast
5:15 AM 46.4 °F 44.3 °F 44.6 °F 93% 29.74 in 10.0 mi SSW 4.6 mph - N/A   Overcast
5:35 AM 46.4 °F 45.2 °F 44.6 °F 93% 29.74 in 10.0 mi SW 3.5 mph - N/A   Overcast
5:55 AM 46.4 °F 45.2 °F 44.6 °F 93% 29.75 in 10.0 mi SW 3.5 mph - N/A   Mostly Cloudy
6:15 AM 44.6 °F 42.2 °F 42.8 °F 93% 29.75 in 10.0 mi SW 4.6 mph - N/A   Scattered Clouds
6:35 AM 44.6 °F 42.2 °F 42.8 °F 93% 29.76 in 10.0 mi SW 4.6 mph - N/A   Scattered Clouds
6:55 AM 44.6 °F 42.2 °F 42.8 °F 93% 29.77 in 10.0 mi SW 4.6 mph - N/A   Scattered Clouds
7:15 AM 44.6 °F 43.1 °F 42.8 °F 93% 29.77 in 10.0 mi WSW 3.5 mph - N/A   Scattered Clouds
7:35 AM 46.4 °F 45.2 °F 42.8 °F 87% 29.77 in 10.0 mi WSW 3.5 mph - N/A   Mostly Cloudy
7:55 AM 46.4 °F 44.3 °F 44.6 °F 93% 29.77 in 10.0 mi SW 4.6 mph - N/A   Scattered Clouds
8:15 AM 48.2 °F - 44.6 °F 87% 29.77 in 10.0 mi WSW 4.6 mph - N/A   Mostly Cloudy
8:35 AM 48.2 °F - 44.6 °F 87% 29.77 in 10.0 mi WNW 5.8 mph - N/A   Mostly Cloudy
8:55 AM 50.0 °F - 46.4 °F 87% 29.77 in 10.0 mi West 3.5 mph - N/A   Mostly Cloudy
9:15 AM 51.8 °F - 46.4 °F 82% 29.78 in 10.0 mi West 4.6 mph - N/A   Mostly Cloudy
9:35 AM 51.8 °F - 46.4 °F 82% 29.78 in 10.0 mi WNW 3.5 mph - N/A   Mostly Cloudy
9:55 AM 51.8 °F - 46.4 °F 82% 29.78 in 10.0 mi WNW 3.5 mph - N/A   Mostly Cloudy
10:15 AM 53.6 °F - 48.2 °F 82% 29.79 in 10.0 mi WNW 3.5 mph - N/A   Scattered Clouds
10:35 AM 53.6 °F - 48.2 °F 82% 29.80 in 10.0 mi Calm Calm - N/A   Clear
10:55 AM 55.4 °F - 48.2 °F 77% 29.80 in 10.0 mi Calm Calm - N/A   Clear
11:15 AM 57.2 °F - 48.2 °F 72% 29.80 in 10.0 mi North 8.1 mph - N/A   Clear
11:35 AM 57.2 °F - 48.2 °F 72% 29.80 in 10.0 mi North 9.2 mph - N/A   Clear
11:55 AM 57.2 °F - 48.2 °F 72% 29.80 in 10.0 mi North 9.2 mph - N/A   Clear
12:15 PM 59.0 °F - 48.2 °F 67% 29.80 in 10.0 mi North 10.4 mph - N/A   Clear
12:35 PM 60.8 °F - 48.2 °F 63% 29.80 in 10.0 mi NNW 6.9 mph - N/A   Scattered Clouds
12:55 PM 59.0 °F - 48.2 °F 67% 29.79 in 10.0 mi North 9.2 mph - N/A   Mostly Cloudy
1:15 PM 60.8 °F - 46.4 °F 59% 29.79 in 10.0 mi North 13.8 mph 17.3 mph N/A   Mostly Cloudy
1:35 PM 60.8 °F - 44.6 °F 55% 29.78 in 10.0 mi NW 9.2 mph 18.4 mph N/A   Scattered Clouds
1:55 PM 60.8 °F - 44.6 °F 55% 29.78 in 10.0 mi NNW 12.7 mph 17.3 mph N/A   Scattered Clouds
2:15 PM 60.8 °F - 44.6 °F 55% 29.79 in 10.0 mi NW 10.4 mph 19.6 mph N/A   Clear
2:35 PM 59.0 °F - 42.8 °F 55% 29.78 in 10.0 mi NW 8.1 mph 19.6 mph N/A   Mostly Cloudy
2:55 PM 59.0 °F - 42.8 °F 55% 29.78 in 10.0 mi NW 9.2 mph 18.4 mph N/A Thunderstorm Thunderstorm
3:15 PM 60.8 °F - 42.8 °F 52% 29.78 in 10.0 mi NW 10.4 mph 17.3 mph N/A   Scattered Clouds
3:35 PM 60.8 °F - 39.2 °F 45% 29.78 in 10.0 mi NW 11.5 mph 20.7 mph N/A   Clear
3:55 PM 60.8 °F - 42.8 °F 52% 29.78 in 10.0 mi NNW 10.4 mph 18.4 mph N/A   Scattered Clouds
4:15 PM 60.8 °F - 41.0 °F 48% 29.79 in 10.0 mi NW 9.2 mph 19.6 mph N/A Thunderstorm Clear
4:35 PM 60.8 °F - 37.4 °F 42% 29.80 in 10.0 mi NW 10.4 mph 18.4 mph N/A   Clear
4:55 PM 62.6 °F - 41.0 °F 45% 29.80 in 10.0 mi NNW 13.8 mph 20.7 mph N/A   Scattered Clouds
5:15 PM 60.8 °F - 37.4 °F 42% 29.82 in 10.0 mi NW 10.4 mph 18.4 mph N/A   Clear
5:35 PM 60.8 °F - 35.6 °F 39% 29.83 in 10.0 mi NNW 10.4 mph 19.6 mph N/A   Clear
5:55 PM 60.8 °F - 37.4 °F 42% 29.83 in 10.0 mi NNW 9.2 mph 16.1 mph N/A   Clear
6:15 PM 60.8 °F - 37.4 °F 42% 29.84 in 10.0 mi NNW 9.2 mph 19.6 mph N/A   Clear
6:35 PM 59.0 °F - 37.4 °F 45% 29.85 in 10.0 mi NNW 9.2 mph - N/A   Clear
6:55 PM 59.0 °F - 37.4 °F 45% 29.85 in 10.0 mi NNW 8.1 mph - N/A   Clear
7:15 PM 57.2 °F - 37.4 °F 48% 29.86 in 10.0 mi NW 4.6 mph - N/A   Scattered Clouds
7:35 PM 57.2 °F - 35.6 °F 44% 29.87 in 10.0 mi NNW 5.8 mph - N/A   Scattered Clouds
7:55 PM 55.4 °F - 35.6 °F 47% 29.88 in 10.0 mi NW 4.6 mph - N/A   Clear
8:15 PM 55.4 °F - 35.6 °F 47% 29.89 in 10.0 mi NNW 3.5 mph - N/A   Clear
8:35 PM 55.4 °F - 37.4 °F 51% 29.90 in 10.0 mi Calm Calm - N/A   Clear
8:55 PM 53.6 °F - 37.4 °F 54% 29.91 in 10.0 mi NW 3.5 mph - N/A   Clear
9:15 PM 53.6 °F - 37.4 °F 54% 29.92 in 10.0 mi WNW 4.6 mph - N/A   Clear
9:35 PM 53.6 °F - 37.4 °F 54% 29.93 in 10.0 mi NW 3.5 mph - N/A   Clear
9:55 PM 53.6 °F - 37.4 °F 54% 29.94 in 10.0 mi NNE 5.8 mph - N/A   Scattered Clouds
10:15 PM 51.8 °F - 39.2 °F 62% 29.94 in 10.0 mi NNW 5.8 mph - N/A   Scattered Clouds
10:35 PM 51.8 °F - 39.2 °F 62% 29.94 in 10.0 mi North 3.5 mph - N/A   Clear
10:55 PM 50.0 °F - 37.4 °F 62% 29.94 in 10.0 mi NW 3.5 mph - N/A   Clear
11:15 PM 48.2 °F - 37.4 °F 66% 29.94 in 10.0 mi Calm Calm - N/A   Clear
11:35 PM 48.2 °F - 37.4 °F 66% 29.95 in 10.0 mi Calm Calm - N/A   Clear
11:55 PM 48.2 °F - 37.4 °F 66% 29.95 in 10.0 mi WNW 4.6 mph - N/A   Clear